MST,Max TemperatureF,Mean TemperatureF,Min TemperatureF,Max Dew PointF,MeanDew PointF,Min DewpointF,Max Humidity, Mean Humidity, Min Humidity, Max Sea Level PressureIn, Mean Sea Level PressureIn, Min Sea Level PressureIn, Max VisibilityMiles, Mean VisibilityMiles, Min VisibilityMiles, Max Wind SpeedMPH, Mean Wind SpeedMPH, Max Gust SpeedMPH,PrecipitationIn, CloudCover, Events, WindDirDegrees
2013-1-1,25,16,7,16,10,5,92,77,62,30.34,30.25,30.12,10,9,2,16,8,22,0.00,2,,259
2013-1-2,33,23,13,25,20,9,84,71,58,30.40,30.22,30.07,10,8,2,24,14,33,T,6,Snow,313
2013-1-3,25,17,9,16,12,3,84,70,55,30.48,30.39,30.30,10,10,10,13,7,16,0.00,4,,280
2013-1-4,36,23,10,20,9,2,74,61,47,30.35,30.24,30.02,10,10,10,15,7,18,0.00,0,,283
2013-1-5,39,26,13,25,17,10,80,67,54,30.39,30.24,30.06,10,10,10,24,14,28,0.00,0,,311
2013-1-6,40,23,6,27,15,2,81,70,59,30.41,30.23,30.01,10,10,10,16,8,18,0.00,0,,209
2013-1-7,41,27,12,25,17,11,91,70,48,30.09,30.02,29.93,10,10,9,13,6,15,0.00,0,,295
2013-1-8,48,27,6,29,20,5,91,70,49,30.28,30.05,29.90,10,10,10,18,7,22,0.00,0,,301
2013-1-9,46,34,21,32,25,17,84,69,53,30.45,30.30,30.20,10,10,10,22,10,30,0.00,0,,203
2013-1-10,37,34,30,36,32,24,100,85,69,30.18,29.78,29.48,10,6,1,21,10,25,0.00,7,,153
2013-1-11,36,24,12,36,25,5,100,84,67,30.00,29.49,29.30,10,3,0,31,13,39,T,7,Fog-Snow,350
2013-1-12,18,11,3,6,2,-2,83,70,56,30.29,30.17,29.89,10,10,10,28,13,33,0.00,0,,323
2013-1-13,19,10,0,6,0,-6,87,72,56,30.42,30.34,30.28,10,10,10,14,8,17,0.00,0,,301
2013-1-14,20,11,1,16,9,-5,92,80,67,30.49,30.29,30.17,10,5,0,12,4,14,0.02,7,Fog-Snow,252
2013-1-15,32,14,-5,22,7,-7,91,71,50,30.35,30.23,30.01,10,9,0,21,9,26,0.00,3,Fog,273
2013-1-16,47,38,28,28,24,19,70,58,45,30.37,30.21,30.05,10,10,10,22,15,29,0.00,2,,312
2013-1-17,50,37,23,26,21,17,74,55,36,30.53,30.41,30.23,10,10,10,16,8,21,0.00,0,,265
2013-1-18,55,40,24,29,23,20,81,58,35,30.22,30.10,30.01,10,10,10,16,9,22,0.00,0,,276
2013-1-19,55,40,24,24,21,18,81,53,24,30.31,30.19,30.01,10,10,10,24,9,26,0.00,0,,319
2013-1-20,42,31,19,26,20,15,96,71,45,30.47,30.33,30.20,10,10,10,36,9,37,0.00,0,,347
2013-1-21,37,25,13,22,18,10,100,74,48,30.40,30.25,30.10,10,7,0,16,6,20,0.00,2,Fog,142
2013-1-22,58,38,18,26,20,13,100,59,17,30.24,30.15,30.06,10,5,0,13,4,15,0.00,1,Fog,196
2013-1-23,49,35,20,24,19,13,81,56,31,30.39,30.25,30.14,10,10,10,16,7,20,0.00,0,,59
2013-1-24,40,27,13,24,16,10,92,71,50,30.36,30.21,30.04,10,10,10,22,11,26,0.00,2,,170
2013-1-25,55,38,21,27,23,18,84,58,32,30.29,30.20,30.12,10,10,10,14,8,16,0.00,0,,226
2013-1-26,55,39,22,35,26,19,88,62,35,30.11,29.98,29.80,10,10,7,12,4,14,0.02,2,Rain,149
2013-1-27,56,43,30,42,36,31,100,80,59,29.82,29.74,29.67,10,5,0,14,5,16,0.02,5,Fog-Rain,341
2013-1-28,46,36,26,41,31,25,100,91,82,29.79,29.72,29.56,10,5,0,25,9,30,T,4,Fog,104
2013-1-29,33,29,24,27,24,18,92,81,69,29.95,29.77,29.69,10,7,0,22,13,29,0.03,6,Fog-Snow,330
2013-1-30,36,25,13,21,14,6,81,60,38,30.05,29.96,29.86,10,10,4,30,12,38,0.01,2,Snow,306
2013-1-31,31,25,19,23,16,8,77,64,50,30.33,30.19,29.97,10,10,10,21,9,25,T,7,,318